Regional Weather Roundup
Issued by NWS

Home | Current Version | Previous Version | Text Only | Print | Product List | Glossary On
Versions: 1 2 3 4 5 6 7 8 9 10 11 12 13 14 15 16 17 18 19 20 21 22 23 24 25 26 27 28 29 30 31 32 33 34 35 36 37 38 39 40 41 42 43 44 45 46 47 48 49 50
000
ASUS45 KREV 271310
RWRNV
NEVADA REGIONAL WEATHER ROUNDUP
NATIONAL WEATHER SERVICE RENO NV
500 AM PST FRI FEB 27 2015

NOTE: "FAIR" INDICATES FEW OR NO CLOUDS BELOW 12,000 FEET WITH NO
SIGNIFICANT WEATHER AND/OR OBSTRUCTIONS TO VISIBILITY.

NVZ001-003-004-271400-
WESTERN NEVADA

CITY           SKY/WX    TMP DP  RH WIND       PRES   REMARKS
RENO           MOCLDY    39  23  52 CALM      29.80F
CARSON CITY    MOCLDY    37  23  56 CALM      29.80S
MINDEN         CLOUDY    39  27  60 W3        29.81
SLIDE MTN        N/A     25  23  93 W21         N/A
PYRAMID LAKE     N/A     43 N/A N/A W6          N/A
FALLON         MOCLDY    36  21  54 CALM      29.79S
LOVELOCK       MOCLDY    37  32  82 CALM      29.81S
HAWTHORNE      MOCLDY    39  23  52 CALM      29.80F
$$

NVZ002-CAZ072-073-271400-
NORTHERN AND CENTRAL SIERRA

CITY           SKY/WX    TMP DP  RH WIND       PRES   REMARKS
S. LAKE TAHOE  CLOUDY    38  29  70 S5        29.81F
TRUCKEE        CLOUDY    27  21  80 N3        29.82S
SQUAW VLY 8000   N/A     28  28 100 W3          N/A
SUSANVILLE     CLEAR     32  28  86 SW6       29.81F
BLUE CANYON    PTCLDY    37  31  78 SE5       29.84S
MAMMOTH LAKES  FAIR      28  19  69 CALM      29.80F
BRIDGEPORT     MOCLDY    34  24  67 VRB3      29.77F
$$

NVZ030-031-036-271400-
NORTHERN NEVADA

CITY           SKY/WX    TMP DP  RH WIND       PRES   REMARKS
ELKO           CLOUDY    25  22  88 S3        29.79F FOG
WINNEMUCCA     CLOUDY    36  29  75 SE7       29.80S
WENDOVER       CLOUDY    36  27  69 CALM      29.83S
$$

NVZ035-037-271400-
CENTRAL NEVADA

CITY           SKY/WX    TMP DP  RH WIND       PRES   REMARKS
ELY            CLOUDY    20  14  77 S8        29.81F
EUREKA           N/A     23  16  74 S8        29.80F
$$

NVZ013-014-271400-
SOUTH CENTRAL NEVADA

CITY           SKY/WX    TMP DP  RH WIND       PRES   REMARKS
TONOPAH        CLOUDY    31  14  49 N6        29.81F
$$

NVZ017-020-022-271400-
SOUTHERN NEVADA

CITY           SKY/WX    TMP DP  RH WIND       PRES   REMARKS
LAS VEGAS      PTCLDY    48  27  44 S9        29.74F
N. LAS VEGAS   PTCLDY    47  25  42 CALM      29.77F
NELLIS AFB     PTCLDY    53  21  29 NE14      29.77F
HENDERSON      CLEAR     49  23  36 E3        29.79F
MERCURY        CLOUDY    47  20  34 MISG      29.77F
$$


USA.gov is the U.S. government's official web portal to all federal, state and local government web resources and services.